Retour au catalogue

ARIANE 1 DEB

ActifHEO
NORAD 25768·DEBRIS·🇫🇷 France

Lancé Dec 24, 1979 depuis Guiana Space Centre

Loading…

Prochains Passages (prochaines 24 heures)

TLE

VieillissantSource: Space-Track

Époque: Aug 28, 2026, 23:54 UTC

1 25768U 79104K   26240.99613933 -.00000301  00000-0 -27205-2 0  9990
2 25768  17.6715 129.7795 5191919 232.5014  10.4858  4.81746593247410

Suivez ARIANE 1 DEB en temps réel avec AllMySat

Download on the App Store